Weather Roundup
Issued by NWS

Home | Current Version | Previous Version | Graphics & Text | Print | Product List | Glossary Off
Versions: 1 2 3 4 5 6 7 8 9 10 11 12 13 14 15 16 17 18 19 20 21 22 23 24 25 26 27 28 29 30 31 32 33 34 35 36 37 38 39 40 41 42 43 44 45 46 47 48 49 50

000
NZUS93 KARX 271459
HRRWXR

CURRENT HOURLY OBSERVATIONS ACROSS
MUCH OF THE UPPER MISSISSIPPI VALLEY
NATIONAL WEATHER SERVICE LA CROSSE WI
1000 AM CDT TUE SEP 27 2016


...SOUTHEAST MINNESOTA...


CITY           SKY/WX    TMP DP  RH WIND       PRES   REMARKS
ROCHESTER      SUNNY     55  41  59 W16G23    29.84F
ROCHESTER/MAYO FAIR      52  40  63 W18G30    29.84F
WINONA         SUNNY     55  43  62 W10G21    29.81S
AUSTIN         SUNNY     54  39  58 W15G24    29.87F
ALBERT LEA     SUNNY     54  41  62 W6        29.90S
DODGE CENTER   SUNNY     54  39  58 W15G25    29.85F
PRESTON        SUNNY     54  40  59 W21G30    29.85F
OWATONNA       SUNNY     54  39  58 W17G25    29.87S
FARIBAULT      SUNNY     55  43  62 W14G20    29.87S
$$

...ELSEWHERE IN MINNESOTA...


CITY           SKY/WX    TMP DP  RH WIND       PRES   REMARKS
MINNEAPOLIS    MOSUNNY   55  42  61 W18G25    29.83S
INTNL FALLS    LGT RAIN  47  44  90 NW13G22   29.73R
DULUTH         DRIZZLE   50  44  80 NW16G26   29.68S
RED WING       SUNNY     55  41  58 NW14G22   29.79F
REDWOOD FALLS  SUNNY     54  40  59 W9        29.93R
MANKATO        SUNNY     54  42  64 NW14      29.90S
WORTHINGTON    SUNNY     58  36  43 W15       29.96S
FAIRMONT       SUNNY     55  38  52 NW13G20   29.94S
$$

...SOUTHWEST WISCONSIN...


CITY           SKY/WX    TMP DP  RH WIND       PRES   REMARKS
LA CROSSE      SUNNY     59  43  55 W15       29.80S
PRAIRIE DU CHI SUNNY     57  38  47 W13G22    29.85S
BOSCOBEL       SUNNY     58  41  53 W15G22    29.83F
LONE ROCK      NOT AVBL
PLATTEVILLE    SUNNY     56  41  57 W13G26    29.85S
FORT MC COY    PTSUNNY   53  42  66 W14G20    29.78S
MAUSTON-NEW LI CLOUDY    53  42  66 W10G21    29.75S
VIROQUA        FAIR      51  39  64 W12G18    29.81S
WIS DELLS      NOT AVBL
$$

...ELSEWHERE IN WISCONSIN...


CITY           SKY/WX    TMP DP  RH WIND       PRES   REMARKS
MILWAUKEE      MOSUNNY   59  40  49 W13G28    29.76S
MADISON        PTSUNNY   55  39  54 W14G22    29.77F
GREEN BAY      CLOUDY    55  47  74 W12G18    29.66S
EAU CLAIRE     NOT AVBL
BLACK RVR FLS  CLOUDY    52  40  64 W10G23    29.77R
MEDFORD        CLOUDY    47  47 100 W12G18    29.69S
WAUSAU         CLOUDY    51  45  79 W21G26    29.67R
WIS RAPIDS     CLOUDY    53  44  71 W14       29.73S
MARSHFIELD     CLOUDY    52  42  69 W18G26    29.71S
RICE LAKE      NOT AVBL
$$

...NORTHEAST IOWA...


CITY           SKY/WX    TMP DP  RH WIND       PRES   REMARKS
WATERLOO       SUNNY     58  40  51 W10       29.91F
DUBUQUE        SUNNY     56  41  57 W14       29.88F
DECORAH        SUNNY     55  41  58 W8G17     29.84F
MASON CITY     SUNNY     56  40  55 W14       29.93F
CHARLES CITY   SUNNY     55  37  50 W12       29.91S
OELWEIN        SUNNY     57  39  51 W13       29.91S
$$

...ELSEWHERE IN IOWA...


CITY           SKY/WX    TMP DP  RH WIND       PRES   REMARKS
DES MOINES     MOSUNNY   62  46  55 W7        29.98F
IOWA CITY      SUNNY     60  42  51 NW10      29.95S
FORT DODGE     SUNNY     61  45  55 W8        29.97S
MARSHALLTOWN   SUNNY     59  42  53 NW13      29.94F
CEDAR RAPIDS   SUNNY     58  43  57 W14       29.92F
$$

...NORTHERN ILLINOIS...


CITY           SKY/WX    TMP DP  RH WIND       PRES   REMARKS
CHICAGO-OHARE  MOSUNNY   61  37  41 W15G26    29.82F
CHICAGO-MIDWAY MOSUNNY   63  36  36 W16G23    29.84S
MOLINE         SUNNY     63  42  46 W14       29.91F
ROCKFORD       MOSUNNY   60  39  45 W15G23    29.85F
PEORIA         SUNNY     65  43  44 W8        29.93F
$$

NOTE: "FAIR" INDICATES FEW OR NO CLOUDS BELOW 12,000 FEET WITH NO
SIGNIFICANT WEATHER AND/OR OBSTRUCTIONS TO VISIBILITY. WIND
SPEEDS ARE IN MILES-PER-HOUR.




USA.gov is the U.S. government's official web portal to all federal, state and local government web resources and services.